Estación Meteorológica Peña el Pijo (Robertgarden) [ 07/07/20 11:10:59 CEST ]

Fecha Hora Presion(HPa) Temp (°C) Humedad % Rocio (°C) Viento ( m/s) Direccion Lluvia 1Hora(mm) Lluvia 24H(mm) LLuvia Total(mm)
2020-May-25 01:09:38 1017.700 - - - - W     39.88
2020-May-25 02:09:12 1017.100 - - - - W     39.88
2020-May-25 03:09:27 1016.900 - - - - W     39.88
2020-May-25 04:09:27 1016.400 - - - - W     39.88
2020-May-25 05:09:42 1016.500 - - - - W     39.88
2020-May-25 06:09:31 1016.500 - - - - W     39.88
2020-May-25 07:09:44 1016.600 - - - - W     39.88
2020-May-25 08:09:35 1016.300 - - - - W     39.88
2020-May-25 09:09:31 1016.400 - - - - W     39.88
2020-May-25 10:09:32 1016.300 - - - - W     39.88
2020-May-25 11:09:15 1016.300 - - - - W     39.88
2020-May-25 12:09:04 1016.600 - - - - W     39.88
2020-May-25 13:09:21 1016.400 - - - - W     39.88
2020-May-25 14:09:13 1015.900 - - - - W     39.88
2020-May-25 15:09:14 1016.300 - - - - W     39.88
2020-May-25 16:08:55 1016.200 - - - - W     39.88
2020-May-25 17:09:18 1015.800 - - - - W     39.88
2020-May-25 18:09:28 1015.400 - - - - W     39.88
2020-May-25 19:09:30 1015.100 - - - - W     39.88
2020-May-25 20:09:03 1015.100 - - - - W     39.88
2020-May-25 21:09:11 1015.500 - - - - W     39.88
2020-May-25 22:08:59 1015.800 - - - - W     39.88
2020-May-25 23:09:14 1016.500 - - - - W     39.88

Temperatura Máxima:    Temperatura Mínima:
Presión Máxima:1017.700 Hpa    Presión Mínima:1015.100 Hpa


Volver